VOI1850 MMGL-KSEA

Flight info

Callsign VOI1850
Flight time N/A
Altitude 36000
Route SEDEM1B SEDEM UJ3 MZT DCT VYLLA DCT CEBIL DCT TOTEC DCT PXR J92 DRK DCT ILC DCT DRSIE DCT PSNIP DCT STUNN DCT PDT CHINS5
Aircraft A20N/M-SDE2E3FGHIRWXY/S

Departure

Time N/A
Airport Guadalajara International Airport (MMGL)

Arrival

Time 2026-05-04 03:56
Airport Seattle–Tacoma International Airport (KSEA)
Time Latitude Longitude Altitude Speed Heading
2026-05-04 02:43 40.98567 -115.78031 36045 ft 440 kts 339°
2026-05-04 02:43 41.01412 -115.79537 36050 ft 440 kts 339°
2026-05-04 02:43 41.07084 -115.82551 36065 ft 439 kts 338°
2026-05-04 02:44 41.12713 -115.85632 36069 ft 438 kts 338°
2026-05-04 02:44 41.18332 -115.88726 36070 ft 437 kts 338°
2026-05-04 02:45 41.23968 -115.91831 36066 ft 437 kts 338°
2026-05-04 02:45 41.29562 -115.94916 36069 ft 436 kts 338°
2026-05-04 02:46 41.35145 -115.98002 36092 ft 436 kts 338°
2026-05-04 02:46 41.40732 -116.01093 36105 ft 435 kts 338°
2026-05-04 02:47 41.46315 -116.04187 36120 ft 434 kts 338°
2026-05-04 02:47 41.51867 -116.07271 36128 ft 434 kts 338°
2026-05-04 02:48 41.57455 -116.10381 36120 ft 433 kts 338°
2026-05-04 02:48 41.63007 -116.13477 36096 ft 433 kts 338°
2026-05-04 02:49 41.68537 -116.16566 36080 ft 433 kts 338°
2026-05-04 02:49 41.74120 -116.19691 36070 ft 433 kts 338°
2026-05-04 02:50 41.79666 -116.22800 36063 ft 432 kts 338°
2026-05-04 02:50 41.85158 -116.25884 36068 ft 431 kts 338°
2026-05-04 02:51 41.90714 -116.29011 36059 ft 431 kts 338°
2026-05-04 02:51 41.96215 -116.32111 36060 ft 431 kts 338°
2026-05-04 02:52 42.01747 -116.35238 36050 ft 431 kts 338°
2026-05-04 02:52 42.07293 -116.38377 36061 ft 431 kts 338°
2026-05-04 02:53 42.12827 -116.41517 36053 ft 431 kts 338°
2026-05-04 02:53 42.18348 -116.44652 36044 ft 430 kts 338°
2026-05-04 02:54 42.23827 -116.47769 36039 ft 430 kts 338°
2026-05-04 02:54 42.29340 -116.50915 36027 ft 429 kts 338°
2026-05-04 02:55 42.37533 -116.55598 36027 ft 428 kts 338°
2026-05-04 02:56 42.43031 -116.58749 36033 ft 427 kts 338°
2026-05-04 02:56 42.48497 -116.61887 36024 ft 427 kts 338°
2026-05-04 02:57 42.53934 -116.65015 36036 ft 426 kts 337°
2026-05-04 02:57 42.59406 -116.68168 36039 ft 425 kts 337°
2026-05-04 02:58 42.64831 -116.71299 36041 ft 425 kts 337°
2026-05-04 02:58 42.70239 -116.74428 36050 ft 424 kts 337°
2026-05-04 02:59 42.75666 -116.77574 36050 ft 423 kts 337°
2026-05-04 02:59 42.81057 -116.80707 36060 ft 423 kts 337°
2026-05-04 03:00 42.86482 -116.83790 36065 ft 422 kts 340°
2026-05-04 03:00 42.92051 -116.86258 36076 ft 421 kts 343°
2026-05-04 03:01 42.97656 -116.88515 36068 ft 420 kts 344°
2026-05-04 03:01 43.03245 -116.90770 36067 ft 419 kts 343°
2026-05-04 03:02 43.08837 -116.93040 36047 ft 419 kts 344°
2026-05-04 03:02 43.14442 -116.95322 36024 ft 419 kts 344°
2026-05-04 03:03 43.21840 -116.98338 36006 ft 419 kts 344°
2026-05-04 03:03 43.32978 -117.02891 36006 ft 419 kts 344°
2026-05-04 03:04 43.47201 -117.08744 35996 ft 417 kts 345°
2026-05-04 03:04 43.68692 -117.20712 35994 ft 421 kts 330°
2026-05-04 03:05 43.88586 -117.38421 35951 ft 423 kts 332°
2026-05-04 03:05 44.04663 -117.51569 35941 ft 426 kts 333°
2026-05-04 03:06 44.09723 -117.55779 35943 ft 426 kts 333°
2026-05-04 03:06 44.14820 -117.60037 35946 ft 426 kts 332°
2026-05-04 03:07 44.19884 -117.64277 35961 ft 425 kts 333°
2026-05-04 03:07 44.24985 -117.68555 35973 ft 426 kts 332°
2026-05-04 03:08 44.30025 -117.72793 35984 ft 425 kts 332°
2026-05-04 03:08 44.35103 -117.77067 35989 ft 425 kts 332°
2026-05-04 03:09 44.39096 -117.80435 35992 ft 425 kts 332°
2026-05-04 03:09 44.45195 -117.85591 35995 ft 424 kts 332°
2026-05-04 03:10 44.50224 -117.89854 35994 ft 423 kts 332°
2026-05-04 03:10 44.55279 -117.94145 35998 ft 424 kts 332°
2026-05-04 03:11 44.60295 -117.98414 36016 ft 423 kts 332°
2026-05-04 03:11 44.65330 -118.02708 36041 ft 423 kts 332°
2026-05-04 03:12 44.70346 -118.06992 36058 ft 423 kts 332°
2026-05-04 03:12 44.75343 -118.11267 36060 ft 422 kts 332°
2026-05-04 03:13 44.80374 -118.15583 36053 ft 422 kts 332°
2026-05-04 03:13 44.85360 -118.19869 36048 ft 421 kts 332°
2026-05-04 03:14 44.90362 -118.24180 36060 ft 421 kts 332°
2026-05-04 03:14 44.95326 -118.28466 36075 ft 421 kts 332°
2026-05-04 03:15 45.00334 -118.32794 36081 ft 421 kts 332°
2026-05-04 03:15 45.05337 -118.37129 36066 ft 421 kts 332°
2026-05-04 03:16 45.10311 -118.41451 36018 ft 422 kts 332°
2026-05-04 03:16 45.15325 -118.45815 36025 ft 421 kts 332°
2026-05-04 03:17 45.20330 -118.50180 36018 ft 421 kts 332°
2026-05-04 03:17 45.25302 -118.54527 35992 ft 421 kts 332°
2026-05-04 03:18 45.30310 -118.58911 35992 ft 422 kts 332°
2026-05-04 03:18 45.35288 -118.63280 35985 ft 422 kts 332°
2026-05-04 03:19 45.40276 -118.67668 35969 ft 422 kts 332°
2026-05-04 03:19 45.45281 -118.72080 35953 ft 422 kts 332°
2026-05-04 03:20 45.50248 -118.76472 35930 ft 422 kts 331°
2026-05-04 03:20 45.55221 -118.80909 35916 ft 422 kts 332°
2026-05-04 03:21 45.60218 -118.85308 35908 ft 422 kts 332°
2026-05-04 03:21 45.65184 -118.89830 35905 ft 424 kts 328°
2026-05-04 03:22 45.69811 -118.95007 35896 ft 427 kts 322°
2026-05-04 03:22 45.74060 -119.01003 35886 ft 430 kts 316°
2026-05-04 03:23 45.77957 -119.07507 35875 ft 431 kts 314°
2026-05-04 03:23 45.81816 -119.14063 35862 ft 431 kts 314°
2026-05-04 03:24 45.85656 -119.20587 35850 ft 430 kts 314°
2026-05-04 03:24 45.89513 -119.27145 35849 ft 430 kts 314°
2026-05-04 03:25 45.93362 -119.33701 35839 ft 430 kts 314°
2026-05-04 03:25 45.97224 -119.40291 35837 ft 431 kts 314°
2026-05-04 03:26 46.01076 -119.46883 35841 ft 431 kts 314°
2026-05-04 03:26 46.04900 -119.53443 35843 ft 430 kts 314°
2026-05-04 03:27 46.08737 -119.60039 35844 ft 430 kts 315°
2026-05-04 03:27 46.12575 -119.66656 35842 ft 430 kts 314°
2026-05-04 03:28 46.16419 -119.73296 35843 ft 431 kts 314°
2026-05-04 03:28 46.20059 -119.79600 35847 ft 430 kts 314°
2026-05-04 03:28 46.21965 -119.82904 35660 ft 431 kts 314°
2026-05-04 03:29 46.23856 -119.86191 35425 ft 428 kts 314°
2026-05-04 03:29 46.25769 -119.89520 35186 ft 426 kts 314°
2026-05-04 03:29 46.27638 -119.92775 34950 ft 424 kts 314°
2026-05-04 03:29 46.29509 -119.96038 34713 ft 422 kts 314°
2026-05-04 03:30 46.31385 -119.99310 34468 ft 422 kts 314°
2026-05-04 03:30 46.33266 -120.02593 34191 ft 422 kts 314°
2026-05-04 03:30 46.35121 -120.05836 33852 ft 423 kts 314°
2026-05-04 03:30 46.37007 -120.09137 33421 ft 423 kts 314°
2026-05-04 03:31 46.38850 -120.12367 32903 ft 421 kts 314°
2026-05-04 03:31 46.40723 -120.15659 32345 ft 418 kts 314°
2026-05-04 03:31 46.42542 -120.18857 31799 ft 416 kts 314°
2026-05-04 03:31 46.44385 -120.22102 31250 ft 413 kts 313°
2026-05-04 03:32 46.46198 -120.25297 30641 ft 412 kts 313°
2026-05-04 03:32 46.48000 -120.28474 30003 ft 412 kts 313°
2026-05-04 03:32 46.49822 -120.31693 29379 ft 412 kts 313°
2026-05-04 03:32 46.51627 -120.34886 28723 ft 411 kts 313°
2026-05-04 03:33 46.53426 -120.38072 28071 ft 411 kts 313°
2026-05-04 03:33 46.55242 -120.41292 27389 ft 412 kts 313°
2026-05-04 03:33 46.57014 -120.44531 26700 ft 413 kts 310°
2026-05-04 03:33 46.58695 -120.47914 26191 ft 410 kts 309°
2026-05-04 03:34 46.60301 -120.51262 25728 ft 405 kts 308°
2026-05-04 03:34 46.61894 -120.54602 25266 ft 400 kts 308°
2026-05-04 03:34 46.63463 -120.57899 24804 ft 396 kts 308°
2026-05-04 03:34 46.65023 -120.61176 24336 ft 391 kts 308°
2026-05-04 03:35 46.66557 -120.64397 23885 ft 386 kts 308°
2026-05-04 03:35 46.68077 -120.67590 23431 ft 382 kts 307°
2026-05-04 03:35 46.69583 -120.70758 22992 ft 377 kts 307°
2026-05-04 03:35 46.71017 -120.73779 22562 ft 373 kts 307°
2026-05-04 03:36 46.72499 -120.76902 22113 ft 369 kts 307°
2026-05-04 03:36 46.73935 -120.79934 21677 ft 365 kts 307°
2026-05-04 03:36 46.75386 -120.82996 21250 ft 361 kts 307°
2026-05-04 03:36 46.76792 -120.85970 20829 ft 358 kts 307°
2026-05-04 03:37 46.78190 -120.88935 20404 ft 355 kts 307°
2026-05-04 03:37 46.79574 -120.91867 19971 ft 352 kts 307°
2026-05-04 03:37 46.80949 -120.94787 19550 ft 349 kts 307°
2026-05-04 03:37 46.82329 -120.97712 19128 ft 346 kts 307°
2026-05-04 03:38 46.83669 -121.00557 18707 ft 343 kts 307°
2026-05-04 03:38 46.85012 -121.03419 18279 ft 341 kts 307°
2026-05-04 03:38 46.86345 -121.06257 17847 ft 339 kts 307°
2026-05-04 03:38 46.87669 -121.09081 17416 ft 337 kts 307°
2026-05-04 03:39 46.88980 -121.11880 16988 ft 335 kts 307°
2026-05-04 03:39 46.90291 -121.14680 16559 ft 334 kts 307°
2026-05-04 03:39 46.91597 -121.17474 16133 ft 332 kts 307°
2026-05-04 03:39 46.92887 -121.20235 15709 ft 330 kts 307°
2026-05-04 03:40 46.94166 -121.22977 15282 ft 328 kts 306°
2026-05-04 03:40 46.95444 -121.25724 14860 ft 327 kts 307°
2026-05-04 03:40 46.96714 -121.28451 14432 ft 325 kts 306°
2026-05-04 03:40 46.97993 -121.31198 13999 ft 323 kts 306°
2026-05-04 03:41 46.99245 -121.33889 13567 ft 322 kts 306°
2026-05-04 03:41 47.00504 -121.36601 13129 ft 321 kts 306°
2026-05-04 03:41 47.01749 -121.39289 12818 ft 315 kts 306°
2026-05-04 03:41 47.02944 -121.41874 12662 ft 304 kts 306°
2026-05-04 03:42 47.04109 -121.44392 12511 ft 294 kts 306°
2026-05-04 03:42 47.05233 -121.46825 12368 ft 284 kts 306°
2026-05-04 03:42 47.06327 -121.49197 12237 ft 278 kts 306°
2026-05-04 03:42 47.07444 -121.51609 12129 ft 293 kts 306°
2026-05-04 03:43 47.08606 -121.54121 12122 ft 296 kts 306°
2026-05-04 03:43 47.09755 -121.56616 12116 ft 296 kts 306°
2026-05-04 03:43 47.10916 -121.59139 12110 ft 296 kts 306°
2026-05-04 03:43 47.12072 -121.61649 12106 ft 296 kts 306°
2026-05-04 03:44 47.13213 -121.64130 12101 ft 296 kts 306°
2026-05-04 03:44 47.14342 -121.66594 12090 ft 281 kts 305°
2026-05-04 03:44 47.15409 -121.68925 12078 ft 266 kts 305°
2026-05-04 03:44 47.16408 -121.71110 12072 ft 256 kts 305°
2026-05-04 03:45 47.17398 -121.73272 12069 ft 256 kts 305°
2026-05-04 03:45 47.18397 -121.75451 12069 ft 261 kts 305°
2026-05-04 03:45 47.19414 -121.77696 12060 ft 263 kts 302°
2026-05-04 03:45 47.20028 -121.80223 12045 ft 266 kts 275°
2026-05-04 03:46 47.20006 -121.82886 11963 ft 263 kts 266°
2026-05-04 03:46 47.19826 -121.85580 11537 ft 267 kts 265°
2026-05-04 03:46 47.19611 -121.88309 11009 ft 274 kts 264°
2026-05-04 03:46 47.19389 -121.91099 10664 ft 273 kts 264°
2026-05-04 03:47 47.19172 -121.93831 10368 ft 270 kts 264°
2026-05-04 03:47 47.18958 -121.96555 10068 ft 267 kts 264°
2026-05-04 03:47 47.18750 -121.99256 9769 ft 265 kts 264°
2026-05-04 03:47 47.18553 -122.01924 9437 ft 264 kts 264°
2026-05-04 03:48 47.18357 -122.04594 9098 ft 263 kts 265°
2026-05-04 03:48 47.18156 -122.07250 8761 ft 262 kts 265°
2026-05-04 03:48 47.17949 -122.09901 8417 ft 262 kts 265°
2026-05-04 03:48 47.17733 -122.12545 8078 ft 261 kts 265°
2026-05-04 03:49 47.17511 -122.15212 7723 ft 260 kts 264°
2026-05-04 03:49 47.17291 -122.17839 7448 ft 257 kts 264°
2026-05-04 03:49 47.17074 -122.20375 7291 ft 249 kts 265°
2026-05-04 03:49 47.16856 -122.22871 7131 ft 241 kts 265°
2026-05-04 03:50 47.16649 -122.25281 6859 ft 233 kts 269°
2026-05-04 03:50 47.16893 -122.27561 6261 ft 229 kts 300°
2026-05-04 03:50 47.17927 -122.29245 5695 ft 224 kts 334°
2026-05-04 03:50 47.19382 -122.29941 5225 ft 219 kts 353°
2026-05-04 03:51 47.20879 -122.29791 4735 ft 218 kts 18°
2026-05-04 03:51 47.22286 -122.28999 4293 ft 217 kts 22°
2026-05-04 03:51 47.23710 -122.28304 4010 ft 216 kts 12°
2026-05-04 03:51 47.25185 -122.27953 3993 ft 216 kts
2026-05-04 03:52 47.26684 -122.27966 3968 ft 219 kts 344°
2026-05-04 03:52 47.28077 -122.28870 3993 ft 220 kts 339°
2026-05-04 03:52 47.29548 -122.29335 3866 ft 212 kts 359°
2026-05-04 03:52 47.30745 -122.29493 3692 ft 200 kts 347°
2026-05-04 03:53 47.31982 -122.30310 3460 ft 188 kts 338°
2026-05-04 03:53 47.33196 -122.30711 3223 ft 174 kts 357°
2026-05-04 03:53 47.34357 -122.30812 2999 ft 164 kts 360°
2026-05-04 03:53 47.35451 -122.30831 2823 ft 148 kts
2026-05-04 03:54 47.36450 -122.30839 2538 ft 141 kts
2026-05-04 03:54 47.37410 -122.30846 2201 ft 137 kts
2026-05-04 03:54 47.38359 -122.30842 1830 ft 136 kts
2026-05-04 03:54 47.39289 -122.30815 1479 ft 134 kts
2026-05-04 03:55 47.40214 -122.30824 1125 ft 134 kts
2026-05-04 03:55 47.41139 -122.30813 798 ft 133 kts 359°
2026-05-04 03:55 47.42049 -122.30816 579 ft 129 kts
2026-05-04 03:55 47.42965 -122.30802 411 ft 131 kts 360°
2026-05-04 03:56 47.43821 -122.30798 362 ft 103 kts
2026-05-04 03:56 47.44363 -122.30793 381 ft 53 kts
2026-05-04 03:56 47.44553 -122.30780 388 ft 7 kts 25°
2026-05-04 03:56 47.44582 -122.30739 390 ft 4 kts 59°
2026-05-04 03:57 47.44588 -122.30691 390 ft 5 kts 100°
2026-05-04 03:57 47.44583 -122.30671 390 ft 0 kts 117°
2026-05-04 03:58 47.44532 -122.30634 389 ft 8 kts 180°
2026-05-04 03:58 47.44461 -122.30633 386 ft 9 kts 180°
2026-05-04 03:58 47.44380 -122.30633 383 ft 13 kts 180°
2026-05-04 03:59 47.44276 -122.30634 380 ft 14 kts 181°
2026-05-04 03:59 47.44187 -122.30636 377 ft 14 kts 181°
2026-05-04 03:59 47.44073 -122.30637 372 ft 18 kts 180°
2026-05-04 03:59 47.43972 -122.30637 370 ft 12 kts 175°
2026-05-04 04:00 47.43971 -122.30580 370 ft 7 kts 47°
2026-05-04 04:00 47.43989 -122.30515 371 ft 6 kts 87°
2026-05-04 04:00 47.43989 -122.30443 371 ft 7 kts 91°
2026-05-04 04:00 47.43988 -122.30362 372 ft 7 kts 90°
2026-05-04 04:01 47.43992 -122.30303 373 ft 2 kts 81°
2026-05-04 04:01 47.43995 -122.30279 373 ft 2 kts 80°
2026-05-04 04:01 47.43999 -122.30248 373 ft 3 kts 78°
2026-05-04 04:01 47.43995 -122.30207 373 ft 3 kts 117°
2026-05-04 04:02 47.43973 -122.30187 373 ft 3 kts 167°
2026-05-04 04:02 47.43962 -122.30184 372 ft 0 kts 171°